FW1093 Weather Reports


time (UTC)temp
F
wind
direction
speed
knots
gust
knots
rain 1hr
in
rain 24hr
in
rain mn
in
humidity
%
barometer
mb
20200803150325 79 238 0.0 2.6 0.00 0.23 0.00 71 1016.7
20200803145329 79 198 0.0 0.9 0.00 0.23 0.00 72 1016.8
20200803144314 78 73 0.0 2.6 0.00 0.23 0.00 72 1016.5
20200803143329 78 9 0.0 2.6 0.00 0.23 0.00 75 1016.6
20200803142316 78 275 0.0 2.6 0.00 0.23 0.00 74 1016.7
20200803141321 77 338 0.0 2.6 0.00 0.23 0.00 74 1016.4
20200803140337 77 181 0.0 2.6 0.00 0.23 0.00 75 1016.4
20200803135325 77 355 0.0 0.9 0.00 0.23 0.00 74 1016.5
20200803134314 77 200 0.0 1.7 0.00 0.23 0.00 76 1016.5
20200803133329 77 2 0.0 4.3 0.00 0.23 0.00 74 1016.2
20200803132318 77 335 0.0 2.6 0.00 0.23 0.00 76 1016.1
20200803131333 76 349 0.9 2.6 0.00 0.23 0.00 77 1016.1
20200803130328 75 27 0.9 2.6 0.00 0.23 0.00 78 1016.2
20200803125316 75 148 0.0 2.6 0.00 0.23 0.00 80 1016.2
20200803124331 75 148 0.0 0.0 0.00 0.23 0.00 81 1016.2
20200803123319 74 288 0.0 1.7 0.00 0.23 0.00 82 1015.9
20200803122318 73 137 0.0 0.0 0.00 0.23 0.00 84 1015.9
20200803121324 73 137 0.0 0.9 0.00 0.23 0.00 84 1015.8
20200803120313 73 58 0.0 0.0 0.00 0.23 0.00 84 1015.7
20200803115326 73 58 0.0 0.0 0.00 0.23 0.00 84 1015.5
20200803114313 73 58 0.0 1.7 0.00 0.23 0.00 85 1015.3
20200803113331 72 73 0.0 1.7 0.00 0.23 0.00 86 1015.4
20200803112326 72 143 0.0 0.0 0.00 0.23 0.00 88 1015.4
20200803111316 72 143 0.0 0.0 0.00 0.23 0.00 90 1015.3
20200803110328 72 143 0.0 0.0 0.00 0.23 0.00 91 1015.1
20200803105334 72 143 0.0 0.0 0.00 0.23 0.00 92 1015.1
20200803104321 72 144 0.0 0.0 0.00 0.23 0.00 93 1014.9
20200803103335 72 144 0.0 0.0 0.00 0.23 0.00 93 1014.7
20200803102329 72 143 0.0 0.0 0.00 0.23 0.00 94 1014.6
20200803101315 72 143 0.0 0.0 0.00 0.23 0.00 93 1014.6
20200803100321 72 143 0.0 0.0 0.00 0.23 0.00 93 1014.6
20200803095326 72 143 0.0 0.0 0.00 0.23 0.00 92 1014.3
20200803094330 72 143 0.0 0.0 0.00 0.23 0.00 92 1014.2
20200803093333 72 143 0.0 0.9 0.00 0.23 0.00 93 1014.1
20200803092331 72 143 0.0 0.0 0.00 0.23 0.00 96 1014.1
20200803091337 73 143 0.0 0.0 0.00 0.23 0.00 98 1013.9
20200803090324 73 143 0.0 0.0 0.00 0.23 0.00 98 1013.8
20200803085329 74 143 0.0 0.0 0.00 0.23 0.00 99 1013.7
20200803084313 74 143 0.0 0.0 0.00 0.23 0.00 99 1013.5
20200803083327 74 144 0.0 0.0 0.00 0.23 0.00 98 1013.3
20200803082322 74 143 0.0 0.0 0.00 0.23 0.00 98 1013.2
20200803081335 74 143 0.0 0.0 0.00 0.23 0.00 98 1013.2
20200803080323 75 143 0.0 0.0 0.00 0.23 0.00 98 1013.1
20200803075328 75 143 0.0 0.0 0.00 0.23 0.00 98 1013.0
20200803074315 75 143 0.0 0.0 0.00 0.23 0.00 98 1013.0
20200803073329 75 143 0.0 0.0 0.00 0.23 0.00 98 1013.0
20200803072313 75 143 0.0 0.0 0.00 0.23 0.00 98 1013.0
20200803071320 75 143 0.0 0.0 0.00 0.23 0.00 98 1012.9
20200803070325 76 143 0.0 0.0 0.00 0.23 0.00 98 1012.8
20200803065326 76 143 0.0 0.0 0.00 0.23 0.00 98 1012.8
20200803064314 76 143 0.0 0.0 0.00 0.23 0.00 97 1012.8
20200803063319 76 144 0.0 0.0 0.00 0.23 0.00 97 1012.7
20200803062322 76 143 0.0 0.0 0.00 0.23 0.00 97 1012.6
20200803061328 76 143 0.0 0.0 0.00 0.23 0.00 97 1012.7
20200803060316 76 143 0.0 0.0 0.00 0.23 0.00 96 1012.6
20200803055320 77 144 0.0 0.0 0.00 0.23 0.00 96 1012.6
20200803054334 77 143 0.0 0.9 0.00 0.23 0.00 96 1012.6
20200803053321 77 139 0.0 0.0 0.00 0.23 0.00 96 1012.6
20200803052326 77 139 0.0 0.0 0.00 0.23 0.00 96 1012.5
20200803051311 77 160 0.0 0.0 0.00 0.23 0.00 96 1012.5
20200803050328 77 160 0.0 0.0 0.00 0.23 0.00 96 1012.6
20200803045333 77 160 0.0 0.0 0.00 0.23 0.00 96 1012.6
20200803044321 77 159 0.0 0.0 0.00 0.23 0.00 96 1012.6
20200803043335 77 156 0.0 0.0 0.00 0.23 0.00 96 1012.5
20200803042321 77 156 0.0 0.9 0.00 0.23 0.00 95 1012.6
20200803041331 77 153 0.0 0.0 0.00 0.23 0.00 95 1012.5
20200803040319 77 159 0.0 0.0 0.00 0.23 0.00 96 1012.5
20200803035326 77 159 0.0 0.0 0.00 0.23 0.23 96 1012.4
20200803034313 77 146 0.0 0.0 0.00 0.23 0.23 96 1012.5
20200803033329 77 167 0.0 0.0 0.00 0.23 0.23 96 1012.5
20200803032326 77 167 0.0 0.0 0.00 0.23 0.23 96 1012.4
20200803031316 77 167 0.0 0.0 0.00 0.23 0.23 96 1012.4
20200803030330 76 167 0.0 0.0 0.00 0.23 0.23 97 1012.5
20200803025315 76 146 0.0 0.0 0.00 0.23 0.23 97 1012.4
20200803024323 76 146 0.0 0.0 0.00 0.23 0.23 97 1012.5
20200803023337 76 146 0.0 0.0 0.00 0.23 0.23 97 1012.5
20200803022326 76 146 0.0 0.0 0.00 0.23 0.23 98 1012.4
20200803021313 76 146 0.0 0.0 0.00 0.23 0.23 98 1012.4
20200803020327 76 146 0.0 0.0 0.00 0.23 0.23 98 1012.4
20200803015331 76 146 0.0 0.0 0.00 0.23 0.23 97 1012.3
20200803014337 76 146 0.0 0.0 0.00 0.23 0.23 97 1012.4
20200803013323 76 146 0.0 0.0 0.00 0.23 0.23 97 1012.4
20200803012315 77 146 0.0 0.9 0.00 0.23 0.23 97 1012.1
20200803011331 77 144 0.0 0.0 0.00 0.23 0.23 97 1012.0
20200803010317 77 165 0.0 0.9 0.00 0.23 0.23 96 1012.0
20200803005331 77 164 0.0 0.0 0.00 0.23 0.23 96 1011.9
20200803004318 77 164 0.0 0.0 0.00 0.23 0.23 95 1011.8
20200803003333 78 164 0.0 0.0 0.00 0.23 0.23 95 1011.8
20200803002330 78 148 0.0 1.7 0.00 0.23 0.23 95 1011.7
20200803001320 78 160 0.0 0.0 0.00 0.23 0.23 94 1011.7
20200803000335 78 160 0.0 0.0 0.00 0.23 0.23 94 1011.7
20200802235322 79 167 0.0 0.9 0.00 0.23 0.23 93 1011.8
20200802234337 79 150 0.0 2.6 0.00 0.23 0.23 92 1011.8
20200802233325 80 157 0.0 2.6 0.00 0.23 0.23 92 1011.8
20200802232316 80 151 0.0 0.9 0.00 0.23 0.23 92 1011.6
20200802231325 80 148 0.0 0.9 0.00 0.23 0.23 93 1011.6
20200802230313 80 164 0.0 0.9 0.00 0.23 0.23 92 1011.7
20200802225320 80 164 0.0 3.5 0.00 0.23 0.23 93 1011.6
20200802224338 80 148 0.0 0.9 0.00 0.23 0.23 94 1011.6
20200802223325 80 143 0.0 2.6 0.00 0.23 0.23 95 1011.6
20200802222314 79 162 0.0 0.9 0.00 0.23 0.23 95 1011.8
20200802221322 79 153 0.0 0.0 0.00 0.23 0.23 95 1011.9
20200802220330 79 153 0.0 0.0 0.00 0.23 0.23 95 1012.0
20200802215335 79 93 0.0 0.9 0.00 0.23 0.23 95 1012.0
20200802214322 79 44 0.0 1.7 0.00 0.23 0.23 95 1012.1
20200802213312 80 153 0.0 0.9 0.00 0.23 0.23 95 1012.2
20200802212327 80 153 0.0 0.9 0.00 0.23 0.23 95 1012.2
20200802211316 80 182 0.0 3.5 0.00 0.23 0.23 94 1012.3
20200802210324 80 166 0.0 0.9 0.00 0.23 0.23 95 1012.3
20200802205312 80 188 0.0 0.9 0.00 0.23 0.23 96 1012.3
20200802204331 79 206 0.0 0.0 0.00 0.23 0.23 97 1012.2
20200802203322 79 206 0.0 0.0 0.00 0.23 0.23 97 1012.4
20200802202323 79 168 0.0 0.0 0.00 0.23 0.23 97 1012.4
20200802200314 78 156 0.0 0.9 0.00 0.23 0.23 98 1012.7
20200802195320 78 170 0.0 0.0 0.00 0.23 0.23 98 1012.7
20200802194330 78 170 0.0 0.0 0.00 0.23 0.23 98 1012.8
20200802193322 78 162 0.0 0.0 0.00 0.23 0.23 98 1012.8
20200802192333 78 159 0.0 0.0 0.00 0.23 0.23 98 1012.8
20200802191323 77 157 0.0 0.0 0.00 0.23 0.23 98 1013.0
20200802190332 77 154 0.0 0.0 0.00 0.23 0.23 98 1013.1
20200802185314 77 154 0.0 0.0 0.01 0.23 0.23 98 1013.2
20200802184320 77 155 0.0 1.7 0.09 0.23 0.23 98 1013.2
20200802183326 77 236 0.0 0.0 0.09 0.23 0.23 98 1013.1
20200802182314 76 236 0.0 0.0 0.09 0.23 0.23 98 1013.3
20200802181328 76 218 0.0 0.0 0.13 0.23 0.23 98 1013.3
20200802180314 76 218 0.0 0.0 0.17 0.23 0.23 98 1013.6
20200802174328 76 148 0.0 0.9 0.10 0.14 0.14 98 1013.6
20200802173317 76 153 0.0 0.0 0.11 0.14 0.14 98 1013.5
20200802172323 75 174 0.0 1.7 0.14 0.14 0.14 97 1013.5
20200802171329 75 63 0.0 0.9 0.09 0.09 0.09 97 1013.7
20200802170337 75 59 0.0 0.9 0.06 0.06 0.06 96 1013.8
20200802165323 75 160 0.0 0.0 0.06 0.06 0.06 95 1013.8
20200802164336 76 160 0.0 0.0 0.04 0.04 0.04 93 1014.1
20200802163322 77 160 0.0 0.0 0.03 0.03 0.03 92 1014.3
20200802162329 77 184 0.0 0.0 0.00 0.00 0.00 91 1014.2
20200802161316 77 179 0.0 0.9 0.00 0.00 0.00 90 1014.3
20200802160323 77 179 0.0 0.9 0.00 0.00 0.00 89 1014.3
20200802155329 77 158 0.0 0.9 0.00 0.00 0.00 88 1014.5
20200802154338 77 146 0.0 2.6 0.00 0.00 0.00 88 1014.8
20200802153326 77 238 0.0 0.9 0.00 0.00 0.00 87 1015.0
20200802152317 77 142 0.0 0.0 0.00 0.00 0.00 87 1015.0
20200802151332 78 164 0.0 0.0 0.00 0.00 0.00 87 1015.2